DW0416 Weather Reports


Display with metric or nautical units.
time (UTC)temp
F
wind
direction
speed
MPH
gust
MPH
rain 1hr
in
rain 24hr
in
rain mn
in
humidity
%
barometer
mb
20260510140025 31 23 0.0 0.0 0.00 0.00 0.00 78 1027.3
20260510134508 30 23 0.0 0.0 0.00 0.00 0.00 79 1027.2
20260510133011 30 23 0.0 0.0 0.00 0.00 0.00 79 1027.2
20260510131520 30 23 0.0 0.0 0.00 0.00 0.00 78 1027.2
20260510130027 30 23 0.0 0.0 0.00 0.00 0.00 79 1027.2
20260510124523 29 23 0.0 0.0 0.00 0.00 0.00 80 1027.0
20260510123010 29 17 0.0 0.0 0.00 0.00 0.00 79 1027.0
20260510121515 30 307 0.0 0.0 0.00 0.00 0.00 79 1026.8
20260510120015 30 102 0.0 0.0 0.00 0.00 0.00 77 1026.7
20260510114541 30 102 0.0 0.0 0.00 0.00 0.00 77 1026.7
20260510113038 31 103 0.0 0.0 0.00 0.00 0.00 76 1026.4
20260510111531 31 115 0.0 0.0 0.00 0.00 0.00 75 1026.4
20260510110014 32 115 0.0 0.0 0.00 0.00 0.00 75 1026.3
20260510104528 32 114 0.0 0.0 0.00 0.00 0.00 75 1026.3
20260510103024 32 115 0.0 0.0 0.00 0.00 0.00 74 1026.2
20260510101526 33 115 0.0 0.0 0.00 0.00 0.00 72 1026.3
20260510100033 33 115 0.0 0.0 0.00 0.00 0.00 72 1026.2
20260510094515 34 115 0.0 0.0 0.00 0.00 0.00 71 1026.1
20260510093020 34 114 0.0 0.0 0.00 0.00 0.00 69 1025.9
20260510091527 35 115 0.0 0.0 0.00 0.00 0.00 68 1025.7
20260510090004 35 115 0.0 0.0 0.00 0.00 0.00 66 1025.5
20260510084516 35 116 0.0 0.0 0.00 0.00 0.00 67 1025.3
20260510083017 36 114 0.0 0.0 0.00 0.00 0.00 66 1025.3
20260510081517 36 139 0.0 0.0 0.00 0.00 0.00 65 1025.2
20260510080030 36 63 0.0 0.0 0.00 0.00 0.00 64 1025.1
20260510074508 36 41 0.0 0.0 0.00 0.00 0.00 64 1025.1
20260510073010 38 274 0.0 0.0 0.00 0.00 0.00 61 1025.0
20260510071527 39 48 0.0 0.0 0.00 0.00 0.00 58 1024.9
20260510070031 39 33 0.0 0.0 0.00 0.00 0.00 57 1024.8
20260510064529 39 58 0.0 0.0 0.00 0.00 0.00 58 1024.6
20260510063014 39 31 0.0 0.0 0.00 0.00 0.00 56 1024.4
20260510061516 40 25 0.0 0.0 0.00 0.00 0.00 57 1024.3
20260510060017 40 357 0.0 0.0 0.00 0.00 0.00 55 1024.2
20260510054530 41 357 0.0 0.0 0.00 0.00 0.00 52 1024.0
20260510053029 41 84 0.0 1.0 0.00 0.00 0.00 52 1023.9
20260510051512 42 84 0.0 1.0 0.00 0.00 0.00 52 1023.8
20260510050022 43 103 0.0 0.0 0.00 0.00 0.00 50 1023.6
20260510044524 44 40 0.0 1.0 0.00 0.00 0.00 47 1023.6
20260510043022 46 40 0.0 3.0 0.00 0.00 0.00 43 1023.4
20260510041532 47 38 0.0 0.0 0.00 0.00 0.00 42 1023.4
20260510040012 48 32 0.0 0.0 0.00 0.00 0.00 40 1023.3
20260510034516 49 70 0.0 2.0 0.00 0.00 0.00 39 1023.0
20260510033027 51 50 5.0 7.0 0.00 0.00 0.00 35 1022.5
20260510031529 51 58 0.0 6.0 0.00 0.00 0.00 36 1022.2
20260510030027 53 41 5.0 10.0 0.00 0.00 0.00 32 1021.9
20260510024517 53 49 7.0 10.0 0.00 0.00 0.00 32 1021.8
20260510023018 54 47 8.0 9.0 0.00 0.00 0.00 33 1021.6
20260510021533 56 23 6.0 7.0 0.00 0.00 0.00 28 1021.5
20260510020031 58 17 1.0 9.0 0.00 0.00 0.00 27 1021.3
20260510014511 60 351 4.0 9.0 0.00 0.00 0.00 25 1021.3
20260510013029 60 310 3.0 7.0 0.00 0.00 0.00 26 1021.3
20260510011520 61 308 4.0 8.0 0.00 0.00 0.00 27 1021.4
20260510010026 58 303 3.0 7.0 0.00 0.00 0.00 27 1021.4
20260510004509 60 297 3.0 9.0 0.00 0.00 0.00 27 1021.1
20260510003012 58 5 2.0 6.0 0.00 0.00 0.00 28 1021.1
20260510001536 58 11 2.0 6.0 0.00 0.00 0.00 28 1021.1
20260510000024 58 283 3.0 7.0 0.00 0.00 0.00 29 1021.1
20260509234530 59 330 3.0 9.0 0.00 0.00 0.00 28 1021.0
20260509233007 58 336 3.0 8.0 0.00 0.00 0.00 27 1021.1
20260509231528 60 338 3.0 12.0 0.00 0.00 0.00 25 1020.9
20260509230029 59 334 3.0 11.0 0.00 0.00 0.00 25 1020.9
20260509224525 60 284 5.0 10.0 0.00 0.00 0.00 24 1020.9
20260509223027 59 302 3.0 11.0 0.00 0.00 0.00 26 1020.8
20260509221514 59 338 4.0 13.0 0.00 0.00 0.00 25 1020.9
20260509220020 60 264 3.0 13.0 0.00 0.00 0.00 25 1020.7
20260509214536 60 276 5.0 15.0 0.00 0.00 0.00 28 1020.9
20260509213027 59 285 5.0 10.0 0.00 0.00 0.00 27 1020.8
20260509211528 59 281 6.0 10.0 0.00 0.00 0.00 28 1020.7
20260509210034 59 282 3.0 8.0 0.00 0.00 0.00 28 1020.8
20260509204530 59 341 5.0 14.0 0.00 0.00 0.00 28 1020.9
20260509203024 58 37 8.0 14.0 0.00 0.00 0.00 26 1020.9
20260509201531 58 42 5.0 13.0 0.00 0.00 0.00 29 1020.6
20260509200037 59 308 6.0 14.0 0.00 0.00 0.00 29 1021.0
20260509194515 57 290 7.0 15.0 0.00 0.00 0.00 30 1021.1
20260509193033 57 354 5.0 17.0 0.00 0.00 0.00 29 1021.0
20260509191524 57 315 7.0 13.0 0.00 0.00 0.00 29 1021.0
20260509190028 55 338 3.0 10.0 0.00 0.00 0.00 30 1021.2
20260509184533 55 43 4.0 12.0 0.00 0.00 0.00 31 1021.1
20260509183029 54 318 3.0 10.0 0.00 0.00 0.00 31 1021.3
20260509181521 53 61 7.0 17.0 0.00 0.00 0.00 31 1021.2
20260509180007 53 33 5.0 11.0 0.00 0.00 0.00 31 1021.3
20260509174520 53 63 4.0 7.0 0.00 0.00 0.00 32 1021.1
20260509173014 53 288 5.0 9.0 0.00 0.00 0.00 32 1021.0
20260509171527 53 8 4.0 12.0 0.00 0.00 0.00 32 1020.9
20260509170005 54 291 3.0 9.0 0.00 0.00 0.00 34 1020.8
20260509164516 54 347 3.0 6.0 0.00 0.00 0.00 33 1020.8
20260509163020 54 46 4.0 9.0 0.00 0.00 0.00 35 1020.8
20260509161528 54 294 3.0 9.0 0.00 0.00 0.00 32 1020.6
20260509160023 54 314 4.0 12.0 0.00 0.00 0.00 34 1020.4
20260509154508 54 298 3.0 8.0 0.00 0.00 0.00 33 1020.3
20260509153033 53 330 3.0 8.0 0.00 0.00 0.00 32 1020.2
20260509151527 52 15 1.0 3.0 0.00 0.00 0.00 34 1020.1
20260509150023 51 53 1.0 3.0 0.00 0.00 0.00 36 1020.2
20260509144525 48 52 0.0 3.0 0.00 0.00 0.00 41 1020.1
20260509143017 45 65 0.0 2.0 0.00 0.00 0.00 47 1020.1
20260509141516 42 108 0.0 1.0 0.00 0.00 0.00 51 1020.1